WXM80 ListenWXM80 Stop

You find our weather info also at:

UK Metoffice

WeatherCloud

Weather Underground

Northeastern Weather Network

AWEKAS

Citizen Weather Observer Program (CWOP)

HAMweather, WeatherForYou, PWS Weather


Weather Underground History page Text

Daily Summary for October 28, 2017 Units:  Both    English   Metric
« Previous Day
Next Day »
Daily Weekly Monthly Yearly Custom
  High: Low: Average:
Temperature: 68.4 °F /  20.2 °C 46.4 °F /  8 °C 57.7 °F /  14.3 °C
Dew Point: 60.7 °F /  15.9 °C 44.5 °F /  6.9 °C 54 °F /  12.2 °C
Humidity: 98 % 66 % 88 %
Wind Speed: 6.3 mph /  10.1 km/h - 1 mph /  1.6 km/h
Wind Gust: 16.1 mph /  25.9 km/h - -
Wind:- - SSE
Pressure: 30.08 in /  1018.5 hPa 29.68 in /  1005 hPa -
Precipitation: 0.00 in /  0 mm    
Historical Graphs
 
 
Tabular Data for October 28, 2017
Time Temperature Dew Point Pressure Wind Wind Speed Wind Gust Humidity Rainfall Rate (Hourly)
00:03 48.3 °F /  9.1 °C 44.6 °F /  7 °C 30.08 in /  1018.5 hPa Calm     87 % 0.00 in /  0 mm
00:08 48.2 °F /  9 °C 44.8 °F /  7.1 °C 30.08 in /  1018.5 hPa Calm     88 % 0.00 in /  0 mm
00:13 48.1 °F /  8.9 °C 44.7 °F /  7.1 °C 30.08 in /  1018.5 hPa Calm     88 % 0.00 in /  0 mm
00:18 48.1 °F /  8.9 °C 44.7 °F /  7.1 °C 30.08 in /  1018.5 hPa Calm     88 % 0.00 in /  0 mm
00:23 48.0 °F /  8.9 °C 44.6 °F /  7 °C 30.08 in /  1018.5 hPa Calm     88 % 0.00 in /  0 mm
00:28 47.9 °F /  8.8 °C 44.5 °F /  6.9 °C 30.08 in /  1018.5 hPa Calm     88 % 0.00 in /  0 mm
00:33 47.9 °F /  8.8 °C 44.8 °F /  7.1 °C 30.07 in /  1018.2 hPa Calm     89 % 0.00 in /  0 mm
00:38 47.9 °F /  8.8 °C 44.8 °F /  7.1 °C 30.07 in /  1018.2 hPa Calm     89 % 0.00 in /  0 mm
00:44 47.8 °F /  8.8 °C 44.7 °F /  7.1 °C 30.07 in /  1018.2 hPa Calm     89 % 0.00 in /  0 mm
00:49 47.8 °F /  8.8 °C 44.7 °F /  7.1 °C 30.07 in /  1018.2 hPa Calm     89 % 0.00 in /  0 mm
00:54 47.7 °F /  8.7 °C 44.6 °F /  7 °C 30.06 in /  1017.8 hPa Calm     89 % 0.00 in /  0 mm
00:59 47.7 °F /  8.7 °C 44.6 °F /  7 °C 30.07 in /  1018.2 hPa Calm     89 % 0.00 in /  0 mm
01:04 47.6 °F /  8.7 °C 44.8 °F /  7.1 °C 30.07 in /  1018.2 hPa Calm     90 % 0.00 in /  0 mm
01:09 47.6 °F /  8.7 °C 44.8 °F /  7.1 °C 30.07 in /  1018.2 hPa Calm     90 % 0.00 in /  0 mm
01:14 47.7 °F /  8.7 °C 45.2 °F /  7.3 °C 30.07 in /  1018.2 hPa Calm     91 % 0.00 in /  0 mm
01:19 47.7 °F /  8.7 °C 45.2 °F /  7.3 °C 30.07 in /  1018.2 hPa Calm     91 % 0.00 in /  0 mm
01:24 47.7 °F /  8.7 °C 45.5 °F /  7.5 °C 30.07 in /  1018.2 hPa Calm     92 % 0.00 in /  0 mm
01:29 47.8 °F /  8.8 °C 45.6 °F /  7.6 °C 30.06 in /  1017.8 hPa Calm     92 % 0.00 in /  0 mm
01:34 47.8 °F /  8.8 °C 45.6 °F /  7.6 °C 30.07 in /  1018.2 hPa Calm     92 % 0.00 in /  0 mm
01:39 47.9 °F /  8.8 °C 46.0 °F /  7.8 °C 30.07 in /  1018.2 hPa Calm     93 % 0.00 in /  0 mm
01:44 47.9 °F /  8.8 °C 46.0 °F /  7.8 °C 30.07 in /  1018.2 hPa Calm     93 % 0.00 in /  0 mm
01:49 48.0 °F /  8.9 °C 46.1 °F /  7.8 °C 30.06 in /  1017.8 hPa Calm     93 % 0.00 in /  0 mm
01:54 48.1 °F /  8.9 °C 46.2 °F /  7.9 °C 30.06 in /  1017.8 hPa Calm     93 % 0.00 in /  0 mm
01:59 48.2 °F /  9 °C 46.6 °F /  8.1 °C 30.07 in /  1018.2 hPa Calm     94 % 0.00 in /  0 mm
02:04 48.2 °F /  9 °C 46.6 °F /  8.1 °C 30.06 in /  1017.8 hPa Calm     94 % 0.00 in /  0 mm
02:10 48.3 °F /  9.1 °C 46.7 °F /  8.2 °C 30.06 in /  1017.8 hPa Calm     94 % 0.00 in /  0 mm
02:15 48.3 °F /  9.1 °C 46.7 °F /  8.2 °C 30.07 in /  1018.2 hPa Calm     94 % 0.00 in /  0 mm
02:20 48.4 °F /  9.1 °C 46.8 °F /  8.2 °C 30.07 in /  1018.2 hPa Calm     94 % 0.00 in /  0 mm
02:25 48.5 °F /  9.2 °C 46.9 °F /  8.3 °C 30.07 in /  1018.2 hPa Calm     94 % 0.00 in /  0 mm
02:30 48.5 °F /  9.2 °C 46.9 °F /  8.3 °C 30.07 in /  1018.2 hPa Calm     94 % 0.00 in /  0 mm
02:35 48.5 °F /  9.2 °C 46.9 °F /  8.3 °C 30.07 in /  1018.2 hPa Calm     94 % 0.00 in /  0 mm
02:40 48.5 °F /  9.2 °C 46.9 °F /  8.3 °C 30.07 in /  1018.2 hPa Calm     94 % 0.00 in /  0 mm
02:45 48.5 °F /  9.2 °C 46.9 °F /  8.3 °C 30.06 in /  1017.8 hPa Calm     94 % 0.00 in /  0 mm
02:50 48.5 °F /  9.2 °C 46.9 °F /  8.3 °C 30.06 in /  1017.8 hPa Calm     94 % 0.00 in /  0 mm
02:55 48.5 °F /  9.2 °C 46.9 °F /  8.3 °C 30.06 in /  1017.8 hPa Calm     94 % 0.00 in /  0 mm
03:00 48.5 °F /  9.2 °C 46.9 °F /  8.3 °C 30.06 in /  1017.8 hPa Calm     94 % 0.00 in /  0 mm
03:05 48.5 °F /  9.2 °C 46.9 °F /  8.3 °C 30.06 in /  1017.8 hPa SSW 0.1 mph /  0.2 km/h 1.2 mph /  1.9 km/h 94 % 0.00 in /  0 mm
03:10 48.5 °F /  9.2 °C 46.9 °F /  8.3 °C 30.05 in /  1017.5 hPa Calm     94 % 0.00 in /  0 mm
03:15 48.5 °F /  9.2 °C 46.9 °F /  8.3 °C 30.06 in /  1017.8 hPa Calm     94 % 0.00 in /  0 mm
03:20 48.4 °F /  9.1 °C 46.8 °F /  8.2 °C 30.06 in /  1017.8 hPa Calm     94 % 0.00 in /  0 mm
03:26 48.4 °F /  9.1 °C 46.8 °F /  8.2 °C 30.06 in /  1017.8 hPa Calm     94 % 0.00 in /  0 mm
03:31 48.4 °F /  9.1 °C 46.8 °F /  8.2 °C 30.05 in /  1017.5 hPa Calm     94 % 0.00 in /  0 mm
03:36 48.3 °F /  9.1 °C 46.7 °F /  8.2 °C 30.05 in /  1017.5 hPa Calm     94 % 0.00 in /  0 mm
03:41 48.3 °F /  9.1 °C 46.7 °F /  8.2 °C 30.05 in /  1017.5 hPa Calm     94 % 0.00 in /  0 mm
03:46 48.2 °F /  9 °C 46.6 °F /  8.1 °C 30.05 in /  1017.5 hPa Calm     94 % 0.00 in /  0 mm
03:51 48.1 °F /  8.9 °C 46.5 °F /  8.1 °C 30.05 in /  1017.5 hPa Calm     94 % 0.00 in /  0 mm
03:56 48.0 °F /  8.9 °C 46.4 °F /  8 °C 30.05 in /  1017.5 hPa Calm     94 % 0.00 in /  0 mm
04:01 47.9 °F /  8.8 °C 46.0 °F /  7.8 °C 30.05 in /  1017.5 hPa Calm     93 % 0.00 in /  0 mm
04:06 47.9 °F /  8.8 °C 46.0 °F /  7.8 °C 30.05 in /  1017.5 hPa Calm     93 % 0.00 in /  0 mm
04:11 47.8 °F /  8.8 °C 45.9 °F /  7.7 °C 30.05 in /  1017.5 hPa Calm     93 % 0.00 in /  0 mm
04:16 47.7 °F /  8.7 °C 45.8 °F /  7.7 °C 30.05 in /  1017.5 hPa Calm     93 % 0.00 in /  0 mm
04:21 47.6 °F /  8.7 °C 45.7 °F /  7.6 °C 30.05 in /  1017.5 hPa Calm     93 % 0.00 in /  0 mm
04:26 47.6 °F /  8.7 °C 45.7 °F /  7.6 °C 30.05 in /  1017.5 hPa Calm     93 % 0.00 in /  0 mm
04:31 47.5 °F /  8.6 °C 45.6 °F /  7.6 °C 30.05 in /  1017.5 hPa Calm     93 % 0.00 in /  0 mm
04:36 47.5 °F /  8.6 °C 45.6 °F /  7.6 °C 30.05 in /  1017.5 hPa Calm     93 % 0.00 in /  0 mm
04:41 47.5 °F /  8.6 °C 45.6 °F /  7.6 °C 30.05 in /  1017.5 hPa Calm     93 % 0.00 in /  0 mm
04:46 47.4 °F /  8.6 °C 45.5 °F /  7.5 °C 30.05 in /  1017.5 hPa Calm     93 % 0.00 in /  0 mm
04:51 47.4 °F /  8.6 °C 45.5 °F /  7.5 °C 30.05 in /  1017.5 hPa Calm     93 % 0.00 in /  0 mm
04:56 47.3 °F /  8.5 °C 45.4 °F /  7.4 °C 30.04 in /  1017.2 hPa Calm     93 % 0.00 in /  0 mm
05:01 47.2 °F /  8.4 °C 45.3 °F /  7.4 °C 30.05 in /  1017.5 hPa Calm     93 % 0.00 in /  0 mm
05:07 47.1 °F /  8.4 °C 45.2 °F /  7.3 °C 30.05 in /  1017.5 hPa Calm     93 % 0.00 in /  0 mm
05:12 47.0 °F /  8.3 °C 45.1 °F /  7.3 °C 30.05 in /  1017.5 hPa Calm     93 % 0.00 in /  0 mm
05:17 46.9 °F /  8.3 °C 45.0 °F /  7.2 °C 30.04 in /  1017.2 hPa Calm     93 % 0.00 in /  0 mm
05:22 46.8 °F /  8.2 °C 44.9 °F /  7.2 °C 30.05 in /  1017.5 hPa Calm     93 % 0.00 in /  0 mm
05:27 46.7 °F /  8.2 °C 44.8 °F /  7.1 °C 30.05 in /  1017.5 hPa Calm     93 % 0.00 in /  0 mm
05:32 46.7 °F /  8.2 °C 44.8 °F /  7.1 °C 30.05 in /  1017.5 hPa Calm     93 % 0.00 in /  0 mm
05:37 46.6 °F /  8.1 °C 44.7 °F /  7.1 °C 30.05 in /  1017.5 hPa Calm     93 % 0.00 in /  0 mm
05:42 46.5 °F /  8.1 °C 44.6 °F /  7 °C 30.05 in /  1017.5 hPa Calm     93 % 0.00 in /  0 mm
05:47 46.5 °F /  8.1 °C 44.6 °F /  7 °C 30.04 in /  1017.2 hPa Calm     93 % 0.00 in /  0 mm
05:52 46.4 °F /  8 °C 44.5 °F /  6.9 °C 30.05 in /  1017.5 hPa Calm     93 % 0.00 in /  0 mm
05:57 46.4 °F /  8 °C 44.8 °F /  7.1 °C 30.05 in /  1017.5 hPa Calm     94 % 0.00 in /  0 mm
06:07 46.5 °F /  8.1 °C 44.9 °F /  7.2 °C 30.04 in /  1017.2 hPa Calm     94 % 0.00 in /  0 mm
06:12 46.5 °F /  8.1 °C 44.9 °F /  7.2 °C 30.05 in /  1017.5 hPa Calm     94 % 0.00 in /  0 mm
06:17 46.6 °F /  8.1 °C 45.0 °F /  7.2 °C 30.05 in /  1017.5 hPa Calm     94 % 0.00 in /  0 mm
06:22 46.7 °F /  8.2 °C 45.3 °F /  7.4 °C 30.04 in /  1017.2 hPa Calm     95 % 0.00 in /  0 mm
06:27 46.7 °F /  8.2 °C 45.3 °F /  7.4 °C 30.04 in /  1017.2 hPa Calm     95 % 0.00 in /  0 mm
06:33 46.8 °F /  8.2 °C 45.4 °F /  7.4 °C 30.05 in /  1017.5 hPa Calm     95 % 0.00 in /  0 mm
06:38 46.9 °F /  8.3 °C 45.5 °F /  7.5 °C 30.05 in /  1017.5 hPa Calm     95 % 0.00 in /  0 mm
06:43 47.0 °F /  8.3 °C 45.6 °F /  7.6 °C 30.05 in /  1017.5 hPa Calm     95 % 0.00 in /  0 mm
06:48 47.1 °F /  8.4 °C 45.7 °F /  7.6 °C 30.05 in /  1017.5 hPa Calm     95 % 0.00 in /  0 mm
06:53 47.2 °F /  8.4 °C 45.8 °F /  7.7 °C 30.05 in /  1017.5 hPa Calm     95 % 0.00 in /  0 mm
06:58 47.3 °F /  8.5 °C 46.2 °F /  7.9 °C 30.05 in /  1017.5 hPa Calm     96 % 0.00 in /  0 mm
07:03 47.3 °F /  8.5 °C 46.2 °F /  7.9 °C 30.05 in /  1017.5 hPa Calm     96 % 0.00 in /  0 mm
07:08 47.3 °F /  8.5 °C 46.2 °F /  7.9 °C 30.05 in /  1017.5 hPa Calm     96 % 0.00 in /  0 mm
07:13 47.4 °F /  8.6 °C 46.3 °F /  7.9 °C 30.05 in /  1017.5 hPa Calm     96 % 0.00 in /  0 mm
07:18 47.6 °F /  8.7 °C 46.5 °F /  8.1 °C 30.05 in /  1017.5 hPa Calm     96 % 0.00 in /  0 mm
07:23 47.7 °F /  8.7 °C 46.6 °F /  8.1 °C 30.05 in /  1017.5 hPa Calm     96 % 0.00 in /  0 mm
07:28 47.8 °F /  8.8 °C 46.7 °F /  8.2 °C 30.05 in /  1017.5 hPa Calm     96 % 0.00 in /  0 mm
07:33 48.0 °F /  8.9 °C 46.9 °F /  8.3 °C 30.05 in /  1017.5 hPa Calm     96 % 0.00 in /  0 mm
07:38 48.2 °F /  9 °C 47.4 °F /  8.6 °C 30.05 in /  1017.5 hPa Calm     97 % 0.00 in /  0 mm
07:43 48.4 °F /  9.1 °C 47.6 °F /  8.7 °C 30.05 in /  1017.5 hPa Calm     97 % 0.00 in /  0 mm
07:48 48.6 °F /  9.2 °C 47.8 °F /  8.8 °C 30.05 in /  1017.5 hPa Calm     97 % 0.00 in /  0 mm
07:54 48.8 °F /  9.3 °C 48.0 °F /  8.9 °C 30.05 in /  1017.5 hPa Calm     97 % 0.00 in /  0 mm
07:59 49.0 °F /  9.4 °C 48.2 °F /  9 °C 30.05 in /  1017.5 hPa Calm     97 % 0.00 in /  0 mm
08:04 49.3 °F /  9.6 °C 48.5 °F /  9.2 °C 30.06 in /  1017.8 hPa Calm     97 % 0.00 in /  0 mm
08:09 49.5 °F /  9.7 °C 48.7 °F /  9.3 °C 30.06 in /  1017.8 hPa Calm     97 % 0.00 in /  0 mm
08:14 49.7 °F /  9.8 °C 48.9 °F /  9.4 °C 30.06 in /  1017.8 hPa Calm     97 % 0.00 in /  0 mm
08:19 49.9 °F /  9.9 °C 49.1 °F /  9.5 °C 30.06 in /  1017.8 hPa Calm     97 % 0.00 in /  0 mm
08:24 50.0 °F /  10 °C 49.2 °F /  9.6 °C 30.06 in /  1017.8 hPa Calm     97 % 0.00 in /  0 mm
08:29 50.2 °F /  10.1 °C 49.4 °F /  9.7 °C 30.07 in /  1018.2 hPa Calm     97 % 0.00 in /  0 mm
08:34 50.5 °F /  10.3 °C 49.7 °F /  9.8 °C 30.06 in /  1017.8 hPa Calm     97 % 0.00 in /  0 mm
08:39 50.7 °F /  10.4 °C 49.9 °F /  9.9 °C 30.06 in /  1017.8 hPa Calm     97 % 0.00 in /  0 mm
08:44 51.0 °F /  10.6 °C 50.5 °F /  10.3 °C 30.06 in /  1017.8 hPa Calm     98 % 0.00 in /  0 mm
08:49 51.3 °F /  10.7 °C 50.8 °F /  10.4 °C 30.06 in /  1017.8 hPa Calm     98 % 0.00 in /  0 mm
08:54 51.7 °F /  10.9 °C 51.2 °F /  10.7 °C 30.06 in /  1017.8 hPa Calm     98 % 0.00 in /  0 mm
08:59 52.1 °F /  11.2 °C 51.6 °F /  10.9 °C 30.06 in /  1017.8 hPa Calm   1.2 mph /  1.9 km/h 98 % 0.00 in /  0 mm
09:04 52.5 °F /  11.4 °C 52.0 °F /  11.1 °C 30.06 in /  1017.8 hPa Calm     98 % 0.00 in /  0 mm
09:09 53.0 °F /  11.7 °C 52.5 °F /  11.4 °C 30.07 in /  1018.2 hPa Calm   2.3 mph /  3.7 km/h 98 % 0.00 in /  0 mm
09:15 53.6 °F /  12 °C 53.0 °F /  11.7 °C 30.06 in /  1017.8 hPa Calm     98 % 0.00 in /  0 mm
09:20 54.2 °F /  12.3 °C 53.6 °F /  12 °C 30.07 in /  1018.2 hPa Calm   1.2 mph /  1.9 km/h 98 % 0.00 in /  0 mm
09:25 54.9 °F /  12.7 °C 54.3 °F /  12.4 °C 30.06 in /  1017.8 hPa SE 0.6 mph /  1 km/h 3.5 mph /  5.6 km/h 98 % 0.00 in /  0 mm
09:30 55.3 °F /  12.9 °C 54.7 °F /  12.6 °C 30.07 in /  1018.2 hPa Calm   1.0 mph /  1.6 km/h 98 % 0.00 in /  0 mm
09:35 55.9 °F /  13.3 °C 55.3 °F /  12.9 °C 30.06 in /  1017.8 hPa Calm     98 % 0.00 in /  0 mm
09:40 56.5 °F /  13.6 °C 55.9 °F /  13.3 °C 30.06 in /  1017.8 hPa Calm     98 % 0.00 in /  0 mm
09:45 57.2 °F /  14 °C 56.6 °F /  13.7 °C 30.05 in /  1017.5 hPa SE 0.9 mph /  1.4 km/h 3.0 mph /  4.8 km/h 98 % 0.00 in /  0 mm
09:50 57.8 °F /  14.3 °C 57.2 °F /  14 °C 30.05 in /  1017.5 hPa SE 0.1 mph /  0.2 km/h 2.3 mph /  3.7 km/h 98 % 0.00 in /  0 mm
09:55 58.3 °F /  14.6 °C 57.7 °F /  14.3 °C 30.05 in /  1017.5 hPa SE 0.3 mph /  0.5 km/h 1.2 mph /  1.9 km/h 98 % 0.00 in /  0 mm
10:00 58.6 °F /  14.8 °C 58.0 °F /  14.4 °C 30.05 in /  1017.5 hPa SE 0.7 mph /  1.1 km/h 2.3 mph /  3.7 km/h 98 % 0.00 in /  0 mm
10:05 58.8 °F /  14.9 °C 58.2 °F /  14.6 °C 30.05 in /  1017.5 hPa SE 0.1 mph /  0.2 km/h 1.2 mph /  1.9 km/h 98 % 0.00 in /  0 mm
10:10 59.1 °F /  15.1 °C 58.5 °F /  14.7 °C 30.04 in /  1017.2 hPa SSW 1.0 mph /  1.6 km/h 3.0 mph /  4.8 km/h 98 % 0.00 in /  0 mm
10:15 59.4 °F /  15.2 °C 58.8 °F /  14.9 °C 30.05 in /  1017.5 hPa SSW 1.8 mph /  2.9 km/h 4.0 mph /  6.4 km/h 98 % 0.00 in /  0 mm
10:19 59.6 °F /  15.3 °C 59.0 °F /  15 °C 30.05 in /  1017.5 hPa SW 0.5 mph /  0.8 km/h 1.2 mph /  1.9 km/h 98 % 0.00 in /  0 mm
10:24 59.9 °F /  15.5 °C 59.3 °F /  15.2 °C 30.04 in /  1017.2 hPa South 0.3 mph /  0.5 km/h 2.0 mph /  3.2 km/h 98 % 0.00 in /  0 mm
10:30 60.2 °F /  15.7 °C 59.3 °F /  15.2 °C 30.04 in /  1017.2 hPa SSW 0.6 mph /  1 km/h 2.0 mph /  3.2 km/h 97 % 0.00 in /  0 mm
10:35 60.5 °F /  15.8 °C 59.6 °F /  15.3 °C 30.04 in /  1017.2 hPa SSE 0.3 mph /  0.5 km/h 1.0 mph /  1.6 km/h 97 % 0.00 in /  0 mm
10:40 60.8 °F /  16 °C 59.4 °F /  15.2 °C 30.04 in /  1017.2 hPa SW 0.3 mph /  0.5 km/h 2.3 mph /  3.7 km/h 95 % 0.00 in /  0 mm
10:45 61.1 °F /  16.2 °C 59.7 °F /  15.4 °C 30.04 in /  1017.2 hPa SE 0.3 mph /  0.5 km/h 3.0 mph /  4.8 km/h 95 % 0.00 in /  0 mm
10:50 61.4 °F /  16.3 °C 59.4 °F /  15.2 °C 30.03 in /  1016.8 hPa SE 0.2 mph /  0.3 km/h 1.2 mph /  1.9 km/h 93 % 0.00 in /  0 mm
10:55 61.7 °F /  16.5 °C 59.0 °F /  15 °C 30.03 in /  1016.8 hPa SE 0.6 mph /  1 km/h 2.3 mph /  3.7 km/h 91 % 0.00 in /  0 mm
11:00 62.0 °F /  16.7 °C 58.7 °F /  14.8 °C 30.03 in /  1016.8 hPa Calm     89 % 0.00 in /  0 mm
11:05 62.5 °F /  16.9 °C 58.9 °F /  14.9 °C 30.03 in /  1016.8 hPa SW 1.8 mph /  2.9 km/h 3.5 mph /  5.6 km/h 88 % 0.00 in /  0 mm
11:10 62.9 °F /  17.2 °C 59.0 °F /  15 °C 30.03 in /  1016.8 hPa SSW 1.1 mph /  1.8 km/h 3.5 mph /  5.6 km/h 87 % 0.00 in /  0 mm
11:15 63.3 °F /  17.4 °C 59.0 °F /  15 °C 30.03 in /  1016.8 hPa Calm     86 % 0.00 in /  0 mm
11:20 64.0 °F /  17.8 °C 59.4 °F /  15.2 °C 30.03 in /  1016.8 hPa South 2.0 mph /  3.2 km/h 4.6 mph /  7.4 km/h 85 % 0.00 in /  0 mm
11:25 64.6 °F /  18.1 °C 59.3 °F /  15.2 °C 30.03 in /  1016.8 hPa SE 3.1 mph /  5 km/h 5.0 mph /  8 km/h 83 % 0.00 in /  0 mm
11:30 65.1 °F /  18.4 °C 59.8 °F /  15.4 °C 30.03 in /  1016.8 hPa SSW 1.7 mph /  2.7 km/h 4.6 mph /  7.4 km/h 83 % 0.00 in /  0 mm
11:35 65.8 °F /  18.8 °C 59.8 °F /  15.4 °C 30.05 in /  1017.5 hPa WSW 2.2 mph /  3.5 km/h 4.0 mph /  6.4 km/h 81 % 0.00 in /  0 mm
11:41 66.3 °F /  19.1 °C 59.6 °F /  15.3 °C 30.03 in /  1016.8 hPa South 1.0 mph /  1.6 km/h 5.0 mph /  8 km/h 79 % 0.00 in /  0 mm
11:46 66.8 °F /  19.3 °C 59.7 °F /  15.4 °C 30.02 in /  1016.5 hPa South 1.0 mph /  1.6 km/h 5.0 mph /  8 km/h 78 % 0.00 in /  0 mm
11:51 66.9 °F /  19.4 °C 58.7 °F /  14.8 °C 30.03 in /  1016.8 hPa SW 3.5 mph /  5.6 km/h 11.0 mph /  17.7 km/h 75 % 0.00 in /  0 mm
11:57 66.8 °F /  19.3 °C 58.2 °F /  14.6 °C 30.03 in /  1016.8 hPa SSW 2.7 mph /  4.3 km/h 5.8 mph /  9.3 km/h 74 % 0.00 in /  0 mm
12:02 66.6 °F /  19.2 °C 58.4 °F /  14.7 °C 30.03 in /  1016.8 hPa SSW 2.2 mph /  3.5 km/h 4.6 mph /  7.4 km/h 75 % 0.00 in /  0 mm
12:07 66.4 °F /  19.1 °C 58.2 °F /  14.6 °C 30.02 in /  1016.5 hPa SSW 1.1 mph /  1.8 km/h 4.6 mph /  7.4 km/h 75 % 0.00 in /  0 mm
12:12 66.2 °F /  19 °C 58.4 °F /  14.7 °C 30.02 in /  1016.5 hPa SSW 3.7 mph /  6 km/h 8.1 mph /  13 km/h 76 % 0.00 in /  0 mm
12:17 66.0 °F /  18.9 °C 57.5 °F /  14.2 °C 30.02 in /  1016.5 hPa SW 3.6 mph /  5.8 km/h 9.2 mph /  14.8 km/h 74 % 0.00 in /  0 mm
12:22 65.8 °F /  18.8 °C 56.9 °F /  13.8 °C 30.02 in /  1016.5 hPa South 3.0 mph /  4.8 km/h 10.4 mph /  16.7 km/h 73 % 0.00 in /  0 mm
12:27 65.8 °F /  18.8 °C 56.9 °F /  13.8 °C 30.01 in /  1016.1 hPa South 1.2 mph /  1.9 km/h 3.5 mph /  5.6 km/h 73 % 0.00 in /  0 mm
12:32 65.9 °F /  18.8 °C 57.4 °F /  14.1 °C 30.01 in /  1016.1 hPa SSW 2.3 mph /  3.7 km/h 4.6 mph /  7.4 km/h 74 % 0.00 in /  0 mm
12:37 66.0 °F /  18.9 °C 56.3 °F /  13.5 °C 30.00 in /  1015.8 hPa SSE 3.8 mph /  6.1 km/h 11.5 mph /  18.5 km/h 71 % 0.00 in /  0 mm
12:42 66.1 °F /  18.9 °C 56.0 °F /  13.3 °C 30.00 in /  1015.8 hPa SSE 2.5 mph /  4 km/h 5.0 mph /  8 km/h 70 % 0.00 in /  0 mm
12:47 66.1 °F /  18.9 °C 55.6 °F /  13.1 °C 30.00 in /  1015.8 hPa SSE 1.3 mph /  2.1 km/h 4.6 mph /  7.4 km/h 69 % 0.00 in /  0 mm
12:52 66.2 °F /  19 °C 56.5 °F /  13.6 °C 30.00 in /  1015.8 hPa SW 1.7 mph /  2.7 km/h 4.6 mph /  7.4 km/h 71 % 0.00 in /  0 mm
12:57 66.5 °F /  19.2 °C 56.4 °F /  13.6 °C 29.99 in /  1015.5 hPa SSE 2.6 mph /  4.2 km/h 9.2 mph /  14.8 km/h 70 % 0.00 in /  0 mm
12:58 66.5 °F /  19.2 °C 56.0 °F /  13.3 °C 29.99 in /  1015.5 hPa SSW 2.3 mph /  3.7 km/h 9.2 mph /  14.8 km/h 69 % 0.00 in /  0 mm
13:03 66.6 °F /  19.2 °C 56.5 °F /  13.6 °C 29.99 in /  1015.5 hPa South 2.6 mph /  4.2 km/h 5.8 mph /  9.3 km/h 70 % 0.00 in /  0 mm
13:08 66.6 °F /  19.2 °C 56.5 °F /  13.6 °C 30.00 in /  1015.8 hPa SSW 1.6 mph /  2.6 km/h 5.0 mph /  8 km/h 70 % 0.00 in /  0 mm
13:13 66.6 °F /  19.2 °C 55.7 °F /  13.2 °C 29.99 in /  1015.5 hPa SSW 2.5 mph /  4 km/h 5.8 mph /  9.3 km/h 68 % 0.00 in /  0 mm
13:18 66.6 °F /  19.2 °C 56.5 °F /  13.6 °C 29.99 in /  1015.5 hPa South 3.6 mph /  5.8 km/h 5.8 mph /  9.3 km/h 70 % 0.00 in /  0 mm
13:23 66.6 °F /  19.2 °C 56.1 °F /  13.4 °C 29.99 in /  1015.5 hPa SE 6.3 mph /  10.1 km/h 11.5 mph /  18.5 km/h 69 % 0.00 in /  0 mm
13:28 66.6 °F /  19.2 °C 56.1 °F /  13.4 °C 29.99 in /  1015.5 hPa SSE 4.0 mph /  6.4 km/h 6.9 mph /  11.1 km/h 69 % 0.00 in /  0 mm
13:33 66.7 °F /  19.3 °C 57.0 °F /  13.9 °C 29.99 in /  1015.5 hPa South 1.5 mph /  2.4 km/h 5.0 mph /  8 km/h 71 % 0.00 in /  0 mm
13:38 66.8 °F /  19.3 °C 56.3 °F /  13.5 °C 29.99 in /  1015.5 hPa South 2.2 mph /  3.5 km/h 4.6 mph /  7.4 km/h 69 % 0.00 in /  0 mm
13:43 67.0 °F /  19.4 °C 56.5 °F /  13.6 °C 29.99 in /  1015.5 hPa SSW 3.5 mph /  5.6 km/h 5.8 mph /  9.3 km/h 69 % 0.00 in /  0 mm
13:48 67.2 °F /  19.6 °C 56.7 °F /  13.7 °C 29.98 in /  1015.1 hPa SSE 3.4 mph /  5.5 km/h 6.9 mph /  11.1 km/h 69 % 0.00 in /  0 mm
13:53 67.5 °F /  19.7 °C 57.0 °F /  13.9 °C 29.98 in /  1015.1 hPa South 3.4 mph /  5.5 km/h 6.9 mph /  11.1 km/h 69 % 0.00 in /  0 mm
13:58 67.8 °F /  19.9 °C 56.4 °F /  13.6 °C 29.98 in /  1015.1 hPa SSE 4.9 mph /  7.9 km/h 11.5 mph /  18.5 km/h 67 % 0.00 in /  0 mm
14:03 67.8 °F /  19.9 °C 56.0 °F /  13.3 °C 29.98 in /  1015.1 hPa South 4.2 mph /  6.8 km/h 8.1 mph /  13 km/h 66 % 0.00 in /  0 mm
14:08 67.9 °F /  19.9 °C 56.5 °F /  13.6 °C 29.98 in /  1015.1 hPa WSW 1.2 mph /  1.9 km/h 2.3 mph /  3.7 km/h 67 % 0.00 in /  0 mm
14:13 68.1 °F /  20.1 °C 57.1 °F /  13.9 °C 29.98 in /  1015.1 hPa SSW 3.0 mph /  4.8 km/h 5.0 mph /  8 km/h 68 % 0.00 in /  0 mm
14:19 68.4 °F /  20.2 °C 57.0 °F /  13.9 °C 29.98 in /  1015.1 hPa SSW 2.9 mph /  4.7 km/h 6.9 mph /  11.1 km/h 67 % 0.00 in /  0 mm
14:24 68.4 °F /  20.2 °C 57.8 °F /  14.3 °C 29.98 in /  1015.1 hPa SSW 2.4 mph /  3.9 km/h 3.5 mph /  5.6 km/h 69 % 0.00 in /  0 mm
14:29 68.3 °F /  20.2 °C 57.3 °F /  14.1 °C 29.97 in /  1014.8 hPa SE 3.9 mph /  6.3 km/h 14.0 mph /  22.5 km/h 68 % 0.00 in /  0 mm
14:34 68.0 °F /  20 °C 57.0 °F /  13.9 °C 29.97 in /  1014.8 hPa SSW 2.0 mph /  3.2 km/h 8.1 mph /  13 km/h 68 % 0.00 in /  0 mm
14:39 67.9 °F /  19.9 °C 57.4 °F /  14.1 °C 29.97 in /  1014.8 hPa SSE 4.3 mph /  6.9 km/h 16.1 mph /  25.9 km/h 69 % 0.00 in /  0 mm
14:44 67.7 °F /  19.8 °C 58.0 °F /  14.4 °C 29.96 in /  1014.4 hPa SW 1.9 mph /  3.1 km/h 5.0 mph /  8 km/h 71 % 0.00 in /  0 mm
14:49 67.6 °F /  19.8 °C 57.9 °F /  14.4 °C 29.97 in /  1014.8 hPa South 2.9 mph /  4.7 km/h 7.0 mph /  11.3 km/h 71 % 0.00 in /  0 mm
14:54 67.6 °F /  19.8 °C 57.9 °F /  14.4 °C 29.96 in /  1014.4 hPa SSW 1.4 mph /  2.3 km/h 5.8 mph /  9.3 km/h 71 % 0.00 in /  0 mm
14:59 67.5 °F /  19.7 °C 57.0 °F /  13.9 °C 29.95 in /  1014.1 hPa South 4.6 mph /  7.4 km/h 6.9 mph /  11.1 km/h 69 % 0.00 in /  0 mm
15:04 67.4 °F /  19.7 °C 57.3 °F /  14.1 °C 29.96 in /  1014.4 hPa SSW 1.4 mph /  2.3 km/h 3.0 mph /  4.8 km/h 70 % 0.00 in /  0 mm
15:09 67.5 °F /  19.7 °C 57.0 °F /  13.9 °C 29.96 in /  1014.4 hPa South 3.9 mph /  6.3 km/h 13.8 mph /  22.2 km/h 69 % 0.00 in /  0 mm
15:14 67.4 °F /  19.7 °C 57.3 °F /  14.1 °C 29.96 in /  1014.4 hPa South 3.4 mph /  5.5 km/h 10.4 mph /  16.7 km/h 70 % 0.00 in /  0 mm
15:19 67.3 °F /  19.6 °C 58.0 °F /  14.4 °C 29.95 in /  1014.1 hPa South 0.7 mph /  1.1 km/h 3.5 mph /  5.6 km/h 72 % 0.00 in /  0 mm
15:24 67.1 °F /  19.5 °C 57.8 °F /  14.3 °C 29.95 in /  1014.1 hPa SE 2.1 mph /  3.4 km/h 6.9 mph /  11.1 km/h 72 % 0.00 in /  0 mm
15:29 66.9 °F /  19.4 °C 57.6 °F /  14.2 °C 29.95 in /  1014.1 hPa SSE 1.7 mph /  2.7 km/h 5.8 mph /  9.3 km/h 72 % 0.00 in /  0 mm
15:35 66.6 °F /  19.2 °C 57.3 °F /  14.1 °C 29.95 in /  1014.1 hPa South 2.2 mph /  3.5 km/h 6.9 mph /  11.1 km/h 72 % 0.00 in /  0 mm
15:40 66.5 °F /  19.2 °C 57.2 °F /  14 °C 29.95 in /  1014.1 hPa SE 3.8 mph /  6.1 km/h 10.4 mph /  16.7 km/h 72 % 0.00 in /  0 mm
15:45 66.4 °F /  19.1 °C 56.7 °F /  13.7 °C 29.94 in /  1013.8 hPa SE 3.9 mph /  6.3 km/h 10.4 mph /  16.7 km/h 71 % 0.00 in /  0 mm
15:50 66.2 °F /  19 °C 56.9 °F /  13.8 °C 29.94 in /  1013.8 hPa SSE 3.5 mph /  5.6 km/h 8.1 mph /  13 km/h 72 % 0.00 in /  0 mm
15:55 66.1 °F /  18.9 °C 57.2 °F /  14 °C 29.94 in /  1013.8 hPa SE 1.7 mph /  2.7 km/h 8.1 mph /  13 km/h 73 % 0.00 in /  0 mm
16:00 65.9 °F /  18.8 °C 57.4 °F /  14.1 °C 29.94 in /  1013.8 hPa SE 2.5 mph /  4 km/h 5.8 mph /  9.3 km/h 74 % 0.00 in /  0 mm
16:10 65.9 °F /  18.8 °C 57.7 °F /  14.3 °C 29.94 in /  1013.8 hPa SE 3.2 mph /  5.1 km/h 6.9 mph /  11.1 km/h 75 % 0.00 in /  0 mm
16:15 65.8 °F /  18.8 °C 58.4 °F /  14.7 °C 29.94 in /  1013.8 hPa SSW 2.6 mph /  4.2 km/h 6.9 mph /  11.1 km/h 77 % 0.00 in /  0 mm
16:20 65.8 °F /  18.8 °C 58.4 °F /  14.7 °C 29.94 in /  1013.8 hPa SE 1.9 mph /  3.1 km/h 6.9 mph /  11.1 km/h 77 % 0.00 in /  0 mm
16:25 65.7 °F /  18.7 °C 58.7 °F /  14.8 °C 29.94 in /  1013.8 hPa SSW 2.1 mph /  3.4 km/h 4.6 mph /  7.4 km/h 78 % 0.00 in /  0 mm
16:30 65.6 °F /  18.7 °C 58.9 °F /  14.9 °C 29.94 in /  1013.8 hPa SE 3.0 mph /  4.8 km/h 8.0 mph /  12.9 km/h 79 % 0.00 in /  0 mm
16:35 65.5 °F /  18.6 °C 58.8 °F /  14.9 °C 29.94 in /  1013.8 hPa SSE 2.8 mph /  4.5 km/h 6.0 mph /  9.7 km/h 79 % 0.00 in /  0 mm
16:40 65.4 °F /  18.6 °C 59.1 °F /  15.1 °C 29.94 in /  1013.8 hPa SE 1.2 mph /  1.9 km/h 6.9 mph /  11.1 km/h 80 % 0.00 in /  0 mm
16:46 65.2 °F /  18.4 °C 58.9 °F /  14.9 °C 29.94 in /  1013.8 hPa SSE 2.0 mph /  3.2 km/h 12.0 mph /  19.3 km/h 80 % 0.00 in /  0 mm
16:51 65.0 °F /  18.3 °C 59.0 °F /  15 °C 29.94 in /  1013.8 hPa SSE 3.0 mph /  4.8 km/h 12.0 mph /  19.3 km/h 81 % 0.00 in /  0 mm
16:56 64.9 °F /  18.3 °C 58.9 °F /  14.9 °C 29.93 in /  1013.4 hPa SSE 5.0 mph /  8 km/h 13.0 mph /  20.9 km/h 81 % 0.00 in /  0 mm
17:01 64.8 °F /  18.2 °C 59.2 °F /  15.1 °C 29.93 in /  1013.4 hPa SSE 3.9 mph /  6.3 km/h 5.0 mph /  8 km/h 82 % 0.00 in /  0 mm
17:06 64.8 °F /  18.2 °C 59.2 °F /  15.1 °C 29.93 in /  1013.4 hPa SSE 1.5 mph /  2.4 km/h 8.1 mph /  13 km/h 82 % 0.00 in /  0 mm
17:11 64.7 °F /  18.2 °C 59.1 °F /  15.1 °C 29.93 in /  1013.4 hPa SE 2.1 mph /  3.4 km/h 11.5 mph /  18.5 km/h 82 % 0.00 in /  0 mm
17:16 64.6 °F /  18.1 °C 59.0 °F /  15 °C 29.93 in /  1013.4 hPa SE 4.4 mph /  7.1 km/h 11.5 mph /  18.5 km/h 82 % 0.00 in /  0 mm
17:21 64.5 °F /  18.1 °C 59.2 °F /  15.1 °C 29.93 in /  1013.4 hPa SE 3.2 mph /  5.1 km/h 4.6 mph /  7.4 km/h 83 % 0.00 in /  0 mm
17:26 64.5 °F /  18.1 °C 59.2 °F /  15.1 °C 29.93 in /  1013.4 hPa SE 1.2 mph /  1.9 km/h 6.9 mph /  11.1 km/h 83 % 0.00 in /  0 mm
17:31 64.4 °F /  18 °C 59.5 °F /  15.3 °C 29.93 in /  1013.4 hPa SE 0.8 mph /  1.3 km/h 3.5 mph /  5.6 km/h 84 % 0.00 in /  0 mm
17:36 64.4 °F /  18 °C 59.5 °F /  15.3 °C 29.94 in /  1013.8 hPa South 2.1 mph /  3.4 km/h 4.6 mph /  7.4 km/h 84 % 0.00 in /  0 mm
17:41 64.3 °F /  17.9 °C 59.7 °F /  15.4 °C 29.93 in /  1013.4 hPa SSE 1.5 mph /  2.4 km/h 6.9 mph /  11.1 km/h 85 % 0.00 in /  0 mm
17:46 64.3 °F /  17.9 °C 59.7 °F /  15.4 °C 29.94 in /  1013.8 hPa SSE 1.8 mph /  2.9 km/h 4.6 mph /  7.4 km/h 85 % 0.00 in /  0 mm
17:51 64.2 °F /  17.9 °C 59.6 °F /  15.3 °C 29.93 in /  1013.4 hPa SSE 5.7 mph /  9.2 km/h 9.0 mph /  14.5 km/h 85 % 0.00 in /  0 mm
17:56 64.1 °F /  17.8 °C 59.8 °F /  15.4 °C 29.93 in /  1013.4 hPa SSE 0.4 mph /  0.6 km/h 1.2 mph /  1.9 km/h 86 % 0.00 in /  0 mm
18:01 64.0 °F /  17.8 °C 59.7 °F /  15.4 °C 29.94 in /  1013.8 hPa SSE 2.2 mph /  3.5 km/h 6.0 mph /  9.7 km/h 86 % 0.00 in /  0 mm
18:06 63.9 °F /  17.7 °C 59.6 °F /  15.3 °C 29.94 in /  1013.8 hPa SSE 0.2 mph /  0.3 km/h 3.5 mph /  5.6 km/h 86 % 0.00 in /  0 mm
18:11 63.8 °F /  17.7 °C 59.5 °F /  15.3 °C 29.93 in /  1013.4 hPa SE 0.9 mph /  1.4 km/h 3.5 mph /  5.6 km/h 86 % 0.00 in /  0 mm
18:17 63.6 °F /  17.6 °C 59.3 °F /  15.2 °C 29.94 in /  1013.8 hPa SE 2.2 mph /  3.5 km/h 3.5 mph /  5.6 km/h 86 % 0.00 in /  0 mm
18:22 63.5 °F /  17.5 °C 59.6 °F /  15.3 °C 29.94 in /  1013.8 hPa SE 1.9 mph /  3.1 km/h 4.0 mph /  6.4 km/h 87 % 0.00 in /  0 mm
18:27 63.4 °F /  17.4 °C 59.5 °F /  15.3 °C 29.93 in /  1013.4 hPa Calm   3.5 mph /  5.6 km/h 87 % 0.00 in /  0 mm
18:32 63.3 °F /  17.4 °C 59.4 °F /  15.2 °C 29.93 in /  1013.4 hPa SSE 0.5 mph /  0.8 km/h 3.5 mph /  5.6 km/h 87 % 0.00 in /  0 mm
18:37 63.1 °F /  17.3 °C 59.2 °F /  15.1 °C 29.93 in /  1013.4 hPa SSE 2.3 mph /  3.7 km/h 4.6 mph /  7.4 km/h 87 % 0.00 in /  0 mm
18:42 63.0 °F /  17.2 °C 59.4 °F /  15.2 °C 29.93 in /  1013.4 hPa SE 1.1 mph /  1.8 km/h 3.5 mph /  5.6 km/h 88 % 0.00 in /  0 mm
18:47 62.9 °F /  17.2 °C 59.3 °F /  15.2 °C 29.93 in /  1013.4 hPa SE 2.1 mph /  3.4 km/h 4.0 mph /  6.4 km/h 88 % 0.00 in /  0 mm
18:52 62.8 °F /  17.1 °C 59.2 °F /  15.1 °C 29.93 in /  1013.4 hPa SE 1.6 mph /  2.6 km/h 3.5 mph /  5.6 km/h 88 % 0.00 in /  0 mm
18:57 62.7 °F /  17.1 °C 59.1 °F /  15.1 °C 29.93 in /  1013.4 hPa Calm   1.2 mph /  1.9 km/h 88 % 0.00 in /  0 mm
19:02 62.6 °F /  17 °C 59.3 °F /  15.2 °C 29.93 in /  1013.4 hPa SE 1.6 mph /  2.6 km/h 6.0 mph /  9.7 km/h 89 % 0.00 in /  0 mm
19:07 62.5 °F /  16.9 °C 59.2 °F /  15.1 °C 29.93 in /  1013.4 hPa SSE 1.4 mph /  2.3 km/h 5.0 mph /  8 km/h 89 % 0.00 in /  0 mm
19:12 62.4 °F /  16.9 °C 59.1 °F /  15.1 °C 29.93 in /  1013.4 hPa SE 1.2 mph /  1.9 km/h 3.5 mph /  5.6 km/h 89 % 0.00 in /  0 mm
19:17 62.3 °F /  16.8 °C 59.0 °F /  15 °C 29.93 in /  1013.4 hPa SSW 0.4 mph /  0.6 km/h 3.5 mph /  5.6 km/h 89 % 0.00 in /  0 mm
19:22 62.3 °F /  16.8 °C 59.0 °F /  15 °C 29.93 in /  1013.4 hPa SE 1.5 mph /  2.4 km/h 3.5 mph /  5.6 km/h 89 % 0.00 in /  0 mm
19:27 62.2 °F /  16.8 °C 59.2 °F /  15.1 °C 29.93 in /  1013.4 hPa SE 0.2 mph /  0.3 km/h 3.5 mph /  5.6 km/h 90 % 0.00 in /  0 mm
19:33 62.2 °F /  16.8 °C 59.2 °F /  15.1 °C 29.93 in /  1013.4 hPa SE 0.1 mph /  0.2 km/h 1.2 mph /  1.9 km/h 90 % 0.00 in /  0 mm
19:38 62.1 °F /  16.7 °C 59.1 °F /  15.1 °C 29.93 in /  1013.4 hPa SE 0.3 mph /  0.5 km/h 3.5 mph /  5.6 km/h 90 % 0.00 in /  0 mm
19:43 62.0 °F /  16.7 °C 59.3 °F /  15.2 °C 29.93 in /  1013.4 hPa SSE 1.2 mph /  1.9 km/h 3.5 mph /  5.6 km/h 91 % 0.00 in /  0 mm
19:48 62.0 °F /  16.7 °C 59.3 °F /  15.2 °C 29.93 in /  1013.4 hPa SSE 0.4 mph /  0.6 km/h 2.3 mph /  3.7 km/h 91 % 0.00 in /  0 mm
19:53 62.0 °F /  16.7 °C 59.3 °F /  15.2 °C 29.92 in /  1013.1 hPa SE 0.4 mph /  0.6 km/h 3.5 mph /  5.6 km/h 91 % 0.00 in /  0 mm
19:59 62.0 °F /  16.7 °C 59.3 °F /  15.2 °C 29.92 in /  1013.1 hPa Calm   3.5 mph /  5.6 km/h 91 % 0.00 in /  0 mm
20:04 61.9 °F /  16.6 °C 59.2 °F /  15.1 °C 29.93 in /  1013.4 hPa Calm   3.5 mph /  5.6 km/h 91 % 0.00 in /  0 mm
20:09 61.9 °F /  16.6 °C 59.2 °F /  15.1 °C 29.93 in /  1013.4 hPa Calm   2.3 mph /  3.7 km/h 91 % 0.00 in /  0 mm
20:14 61.9 °F /  16.6 °C 59.2 °F /  15.1 °C 29.93 in /  1013.4 hPa SE 2.0 mph /  3.2 km/h 3.5 mph /  5.6 km/h 91 % 0.00 in /  0 mm
20:19 61.9 °F /  16.6 °C 59.2 °F /  15.1 °C 29.93 in /  1013.4 hPa Calm     91 % 0.00 in /  0 mm
20:24 61.8 °F /  16.6 °C 59.1 °F /  15.1 °C 29.93 in /  1013.4 hPa SE 0.2 mph /  0.3 km/h 3.5 mph /  5.6 km/h 91 % 0.00 in /  0 mm
20:29 61.8 °F /  16.6 °C 59.1 °F /  15.1 °C 29.93 in /  1013.4 hPa SE 1.4 mph /  2.3 km/h 4.6 mph /  7.4 km/h 91 % 0.00 in /  0 mm
20:34 61.8 °F /  16.6 °C 59.5 °F /  15.3 °C 29.93 in /  1013.4 hPa Calm   1.2 mph /  1.9 km/h 92 % 0.00 in /  0 mm
20:39 61.8 °F /  16.6 °C 59.5 °F /  15.3 °C 29.93 in /  1013.4 hPa SE 0.3 mph /  0.5 km/h 2.0 mph /  3.2 km/h 92 % 0.00 in /  0 mm
20:44 61.8 °F /  16.6 °C 59.5 °F /  15.3 °C 29.93 in /  1013.4 hPa SSE 0.1 mph /  0.2 km/h 1.2 mph /  1.9 km/h 92 % 0.00 in /  0 mm
20:49 61.8 °F /  16.6 °C 59.5 °F /  15.3 °C 29.93 in /  1013.4 hPa Calm   1.2 mph /  1.9 km/h 92 % 0.00 in /  0 mm
20:54 61.8 °F /  16.6 °C 59.5 °F /  15.3 °C 29.93 in /  1013.4 hPa Calm   1.2 mph /  1.9 km/h 92 % 0.00 in /  0 mm
20:59 61.7 °F /  16.5 °C 59.4 °F /  15.2 °C 29.93 in /  1013.4 hPa Calm   1.2 mph /  1.9 km/h 92 % 0.00 in /  0 mm
21:04 61.7 °F /  16.5 °C 59.4 °F /  15.2 °C 29.93 in /  1013.4 hPa SE 1.1 mph /  1.8 km/h 2.3 mph /  3.7 km/h 92 % 0.00 in /  0 mm
21:09 61.7 °F /  16.5 °C 59.4 °F /  15.2 °C 29.93 in /  1013.4 hPa Calm     92 % 0.00 in /  0 mm
21:14 61.6 °F /  16.4 °C 59.3 °F /  15.2 °C 29.93 in /  1013.4 hPa SE 0.1 mph /  0.2 km/h 2.0 mph /  3.2 km/h 92 % 0.00 in /  0 mm
21:20 61.6 °F /  16.4 °C 59.3 °F /  15.2 °C 29.93 in /  1013.4 hPa SE 0.3 mph /  0.5 km/h 3.5 mph /  5.6 km/h 92 % 0.00 in /  0 mm
21:25 61.6 °F /  16.4 °C 59.3 °F /  15.2 °C 29.93 in /  1013.4 hPa Calm   2.3 mph /  3.7 km/h 92 % 0.00 in /  0 mm
21:30 61.5 °F /  16.4 °C 59.5 °F /  15.3 °C 29.93 in /  1013.4 hPa SE 1.6 mph /  2.6 km/h 4.6 mph /  7.4 km/h 93 % 0.00 in /  0 mm
21:35 61.5 °F /  16.4 °C 59.5 °F /  15.3 °C 29.93 in /  1013.4 hPa Calm   2.3 mph /  3.7 km/h 93 % 0.00 in /  0 mm
21:40 61.5 °F /  16.4 °C 59.5 °F /  15.3 °C 29.93 in /  1013.4 hPa SE 0.3 mph /  0.5 km/h 2.3 mph /  3.7 km/h 93 % 0.00 in /  0 mm
21:45 61.5 °F /  16.4 °C 59.5 °F /  15.3 °C 29.93 in /  1013.4 hPa SE 1.1 mph /  1.8 km/h 2.3 mph /  3.7 km/h 93 % 0.00 in /  0 mm
21:50 61.4 °F /  16.3 °C 59.4 °F /  15.2 °C 29.93 in /  1013.4 hPa SSE 0.6 mph /  1 km/h 4.0 mph /  6.4 km/h 93 % 0.00 in /  0 mm
21:55 61.5 °F /  16.4 °C 59.5 °F /  15.3 °C 29.93 in /  1013.4 hPa SE 0.1 mph /  0.2 km/h 2.3 mph /  3.7 km/h 93 % 0.00 in /  0 mm
22:00 61.6 °F /  16.4 °C 59.6 °F /  15.3 °C 29.93 in /  1013.4 hPa SE 1.4 mph /  2.3 km/h 3.5 mph /  5.6 km/h 93 % 0.00 in /  0 mm
22:05 61.6 °F /  16.4 °C 59.6 °F /  15.3 °C 29.93 in /  1013.4 hPa SE 0.9 mph /  1.4 km/h 2.3 mph /  3.7 km/h 93 % 0.00 in /  0 mm
22:10 61.6 °F /  16.4 °C 59.6 °F /  15.3 °C 29.93 in /  1013.4 hPa SE 1.9 mph /  3.1 km/h 6.0 mph /  9.7 km/h 93 % 0.00 in /  0 mm
22:15 61.6 °F /  16.4 °C 59.6 °F /  15.3 °C 29.93 in /  1013.4 hPa SE 0.5 mph /  0.8 km/h 2.3 mph /  3.7 km/h 93 % 0.00 in /  0 mm
22:20 61.6 °F /  16.4 °C 59.6 °F /  15.3 °C 29.93 in /  1013.4 hPa Calm   1.2 mph /  1.9 km/h 93 % 0.00 in /  0 mm
22:25 61.6 °F /  16.4 °C 59.6 °F /  15.3 °C 29.93 in /  1013.4 hPa SSE 2.2 mph /  3.5 km/h 2.3 mph /  3.7 km/h 93 % 0.00 in /  0 mm
22:30 61.7 °F /  16.5 °C 60.0 °F /  15.6 °C 29.93 in /  1013.4 hPa SSE 0.1 mph /  0.2 km/h 3.5 mph /  5.6 km/h 94 % 0.00 in /  0 mm
22:35 61.7 °F /  16.5 °C 60.0 °F /  15.6 °C 29.93 in /  1013.4 hPa SE 0.9 mph /  1.4 km/h 3.5 mph /  5.6 km/h 94 % 0.00 in /  0 mm
22:40 61.8 °F /  16.6 °C 60.1 °F /  15.6 °C 29.93 in /  1013.4 hPa Calm   1.2 mph /  1.9 km/h 94 % 0.00 in /  0 mm
22:46 61.8 °F /  16.6 °C 60.1 °F /  15.6 °C 29.94 in /  1013.8 hPa SE 1.0 mph /  1.6 km/h 5.0 mph /  8 km/h 94 % 0.00 in /  0 mm
22:51 61.9 °F /  16.6 °C 60.2 °F /  15.7 °C 29.93 in /  1013.4 hPa SE 1.0 mph /  1.6 km/h 6.0 mph /  9.7 km/h 94 % 0.00 in /  0 mm
22:56 62.1 °F /  16.7 °C 60.3 °F /  15.7 °C 29.93 in /  1013.4 hPa SE 1.0 mph /  1.6 km/h 6.0 mph /  9.7 km/h 94 % 0.00 in /  0 mm
23:01 62.2 °F /  16.8 °C 60.5 °F /  15.8 °C 29.93 in /  1013.4 hPa SE 1.3 mph /  2.1 km/h 3.5 mph /  5.6 km/h 94 % 0.00 in /  0 mm
23:06 62.2 °F /  16.8 °C 60.5 °F /  15.8 °C 29.93 in /  1013.4 hPa SE 3.0 mph /  4.8 km/h 6.0 mph /  9.7 km/h 94 % 0.00 in /  0 mm
23:11 62.3 °F /  16.8 °C 60.6 °F /  15.9 °C 29.93 in /  1013.4 hPa SSE 2.0 mph /  3.2 km/h 3.5 mph /  5.6 km/h 94 % 0.00 in /  0 mm
23:17 62.3 °F /  16.8 °C 60.6 °F /  15.9 °C 29.93 in /  1013.4 hPa SE 0.6 mph /  1 km/h 4.0 mph /  6.4 km/h 94 % 0.00 in /  0 mm
23:21 62.3 °F /  16.8 °C 60.6 °F /  15.9 °C 29.93 in /  1013.4 hPa SE 1.1 mph /  1.8 km/h 1.1 mph /  1.8 km/h 94 % 0.00 in /  0 mm
23:22 62.4 °F /  16.9 °C 60.7 °F /  15.9 °C 29.93 in /  1013.4 hPa SE 1.1 mph /  1.8 km/h 3.5 mph /  5.6 km/h 94 % 0.00 in /  0 mm
23:26 62.4 °F /  16.9 °C 60.7 °F /  15.9 °C 29.69 in /  1005.3 hPa SE 0.7 mph /  1.1 km/h 4.0 mph /  6.4 km/h 94 % 0.00 in /  0 mm
23:27 62.4 °F /  16.9 °C 60.3 °F /  15.7 °C 29.93 in /  1013.4 hPa SE 1.3 mph /  2.1 km/h 3.5 mph /  5.6 km/h 93 % 0.00 in /  0 mm
23:28 62.4 °F /  16.9 °C 60.3 °F /  15.7 °C 29.68 in /  1005 hPa SE 1.5 mph /  2.4 km/h 3.5 mph /  5.6 km/h 93 % 0.00 in /  0 mm
23:33 62.4 °F /  16.9 °C 60.3 °F /  15.7 °C 29.92 in /  1013.1 hPa SSE 1.6 mph /  2.6 km/h 2.3 mph /  3.7 km/h 93 % 0.00 in /  0 mm
23:38 62.5 °F /  16.9 °C 60.4 °F /  15.8 °C 29.92 in /  1013.1 hPa SE 3.0 mph /  4.8 km/h 5.8 mph /  9.3 km/h 93 % 0.00 in /  0 mm
23:43 62.5 °F /  16.9 °C 60.4 °F /  15.8 °C 29.91 in /  1012.8 hPa SE 3.2 mph /  5.1 km/h 5.0 mph /  8 km/h 93 % 0.00 in /  0 mm
23:44 62.5 °F /  16.9 °C 60.4 °F /  15.8 °C 29.91 in /  1012.8 hPa SE 3.0 mph /  4.8 km/h 4.6 mph /  7.4 km/h 93 % 0.00 in /  0 mm
23:49 62.6 °F /  17 °C 60.5 °F /  15.8 °C 29.91 in /  1012.8 hPa SE 1.1 mph /  1.8 km/h 3.5 mph /  5.6 km/h 93 % 0.00 in /  0 mm
23:54 62.6 °F /  17 °C 60.5 °F /  15.8 °C 29.91 in /  1012.8 hPa SE 1.7 mph /  2.7 km/h 3.5 mph /  5.6 km/h 93 % 0.00 in /  0 mm
23:59 62.6 °F /  17 °C 60.5 °F /  15.8 °C 29.91 in /  1012.8 hPa Calm     93 % 0.00 in /  0 mm
Crab Meadow Weather
Compliments of Weather Underground - 3 mb

Script developed by  Jim McMurry - jmcmurry@mwt.net Adapted for the template by  Wim van der Kuil - Leuven-Template.eu

Lightning: Lightning can strike the same place twice and sometimes many times. The Empire State Building in New York City is struck an average of 23 times a year. During one thunderstorm it was struck 8 times in 24 minutes.